Time,TemperatureF,DewpointF,PressureIn,WindDirection,WindDirectionDegrees,WindSpeedMPH,WindSpeedGustMPH,Humidity,HourlyPrecipIn,Conditions,Clouds,dailyrainin,SoftwareType,DateUTC
2013-02-21 00:02:00,35.6,35.1,30.00,East,94,0.0,0.0,98,0.00,RA,OVC,0.00,WeatherDisplay:10.37,2013-02-21 08:02:00,
2013-02-21 00:07:00,35.6,35.1,29.99,SE,126,0.0,0.0,98,0.00,RA,OVC,0.00,WeatherDisplay:10.37,2013-02-21 08:07:00,
2013-02-21 00:12:00,35.6,35.1,29.99,ESE,113,0.0,0.0,98,0.00,,OVC,0.00,WeatherDisplay:10.37,2013-02-21 08:12:00,
2013-02-21 00:17:00,35.7,35.2,29.99,ESE,113,0.0,0.0,98,0.00,,OVC,0.00,WeatherDisplay:10.37,2013-02-21 08:17:00,
2013-02-21 00:22:00,35.7,35.2,29.99,ESE,112,0.0,0.0,98,0.00,,OVC,0.00,WeatherDisplay:10.37,2013-02-21 08:22:00,
2013-02-21 00:27:00,35.6,35.1,30.00,ESE,112,0.0,0.0,98,0.00,,OVC,0.00,WeatherDisplay:10.37,2013-02-21 08:27:00,
2013-02-21 00:32:00,35.5,35.0,30.00,ESE,113,0.0,0.0,98,0.00,,OVC,0.00,WeatherDisplay:10.37,2013-02-21 08:32:00,
2013-02-21 00:37:00,35.5,35.0,30.00,ESE,120,0.0,0.0,98,0.00,,OVC,0.00,WeatherDisplay:10.37,2013-02-21 08:37:00,
2013-02-21 00:42:00,35.4,34.9,30.00,East,94,1.0,0.0,98,0.00,,OVC,0.00,WeatherDisplay:10.37,2013-02-21 08:42:00,
2013-02-21 00:47:00,35.4,34.9,30.00,East,81,0.0,0.0,98,0.00,,OVC,0.00,WeatherDisplay:10.37,2013-02-21 08:47:00,
2013-02-21 00:52:00,35.5,35.0,30.00,East,82,0.0,0.0,98,0.00,,OVC,0.00,WeatherDisplay:10.37,2013-02-21 08:52:00,
2013-02-21 00:57:00,35.5,35.0,30.00,East,82,0.0,0.0,98,0.00,,OVC,0.00,WeatherDisplay:10.37,2013-02-21 08:57:00,
2013-02-21 01:02:00,35.5,35.0,30.01,East,82,0.0,0.0,98,0.00,,OVC,0.00,WeatherDisplay:10.37,2013-02-21 09:02:00,
2013-02-21 01:07:00,35.5,35.0,30.01,East,82,0.0,0.0,98,0.00,,OVC,0.00,WeatherDisplay:10.37,2013-02-21 09:07:00,
2013-02-21 01:12:00,35.5,35.0,30.01,East,82,0.0,0.0,98,0.00,,OVC,0.00,WeatherDisplay:10.37,2013-02-21 09:12:00,
2013-02-21 01:17:00,35.5,35.0,30.02,East,82,0.0,0.0,98,0.00,,OVC,0.00,WeatherDisplay:10.37,2013-02-21 09:17:00,
2013-02-21 01:22:00,35.5,35.0,30.02,East,82,0.0,0.0,98,0.00,,OVC,0.00,WeatherDisplay:10.37,2013-02-21 09:22:00,
2013-02-21 01:27:00,35.6,35.1,30.02,East,82,0.0,0.0,98,0.00,,OVC,0.00,WeatherDisplay:10.37,2013-02-21 09:27:00,
2013-02-21 01:32:00,35.6,35.1,30.01,East,82,1.0,0.0,98,0.00,,OVC,0.00,WeatherDisplay:10.37,2013-02-21 09:32:00,
2013-02-21 01:37:00,35.6,35.1,30.01,East,82,0.0,0.0,98,0.00,,OVC,0.00,WeatherDisplay:10.37,2013-02-21 09:37:00,
2013-02-21 01:42:00,35.6,35.1,30.02,East,82,0.0,0.0,98,0.00,,OVC,0.00,WeatherDisplay:10.37,2013-02-21 09:42:00,
2013-02-21 01:47:00,35.7,35.2,30.01,East,82,0.0,0.0,98,0.00,,OVC,0.00,WeatherDisplay:10.37,2013-02-21 09:47:00,
2013-02-21 01:52:00,35.7,35.2,30.02,East,82,0.0,0.0,98,0.00,,OVC,0.00,WeatherDisplay:10.37,2013-02-21 09:52:00,
2013-02-21 01:57:00,35.7,35.2,30.02,East,82,0.0,0.0,98,0.00,,OVC,0.00,WeatherDisplay:10.37,2013-02-21 09:57:00,
2013-02-21 02:02:00,35.6,35.1,30.02,East,99,0.0,0.0,98,0.00,,OVC,0.00,WeatherDisplay:10.37,2013-02-21 10:02:00,
2013-02-21 02:07:00,35.6,35.1,30.02,SE,140,0.0,0.0,98,0.00,,OVC,0.00,WeatherDisplay:10.37,2013-02-21 10:07:00,
2013-02-21 02:12:00,35.7,35.2,30.01,SSE,168,0.0,0.0,98,0.00,,OVC,0.00,WeatherDisplay:10.37,2013-02-21 10:12:00,
2013-02-21 02:17:00,35.7,35.2,30.01,SSE,168,0.0,0.0,98,0.00,,OVC,0.00,WeatherDisplay:10.37,2013-02-21 10:17:00,
2013-02-21 02:22:00,35.7,35.2,30.01,SSE,164,0.0,0.0,98,0.00,,OVC,0.00,WeatherDisplay:10.37,2013-02-21 10:22:00,
2013-02-21 02:27:00,35.7,35.2,30.01,SE,125,0.0,0.0,98,0.00,,OVC,0.00,WeatherDisplay:10.37,2013-02-21 10:27:00,
2013-02-21 02:32:00,35.7,35.2,30.02,SE,138,0.0,0.0,98,0.00,,OVC,0.00,WeatherDisplay:10.37,2013-02-21 10:32:00,
2013-02-21 02:37:00,35.7,35.2,30.02,SSE,155,0.0,0.0,98,0.01,RA,OVC,0.01,WeatherDisplay:10.37,2013-02-21 10:37:00,
2013-02-21 02:42:00,35.7,35.2,30.02,SSE,156,0.0,0.0,98,0.01,RA,OVC,0.01,WeatherDisplay:10.37,2013-02-21 10:42:00,
2013-02-21 02:47:00,35.7,35.2,30.02,SSE,154,0.0,0.0,98,0.00,,OVC,0.01,WeatherDisplay:10.37,2013-02-21 10:47:00,
2013-02-21 02:52:00,35.7,35.2,30.01,East,92,2.0,0.0,98,0.00,,OVC,0.01,WeatherDisplay:10.37,2013-02-21 10:52:00,
2013-02-21 02:57:00,35.7,35.2,30.01,East,83,0.0,0.0,98,0.00,,OVC,0.01,WeatherDisplay:10.37,2013-02-21 10:57:00,
2013-02-21 03:02:00,35.6,35.1,30.01,East,83,0.0,0.0,98,0.00,,OVC,0.01,WeatherDisplay:10.37,2013-02-21 11:02:00,
2013-02-21 03:07:00,35.6,35.1,30.02,East,87,0.0,0.0,98,0.00,,OVC,0.01,WeatherDisplay:10.37,2013-02-21 11:07:00,
2013-02-21 03:12:00,35.6,35.1,30.02,ESE,104,0.0,0.0,98,0.00,,OVC,0.01,WeatherDisplay:10.37,2013-02-21 11:12:00,
2013-02-21 03:17:00,35.6,35.1,30.02,ESE,111,0.0,0.0,98,0.01,RA,OVC,0.02,WeatherDisplay:10.37,2013-02-21 11:17:00,
2013-02-21 03:22:00,35.6,35.1,30.02,ESE,111,0.0,0.0,98,0.01,RA,OVC,0.02,WeatherDisplay:10.37,2013-02-21 11:22:00,
2013-02-21 03:27:00,35.6,35.1,30.01,SE,124,1.0,0.0,98,0.00,,OVC,0.02,WeatherDisplay:10.37,2013-02-21 11:27:00,
2013-02-21 03:32:00,35.6,35.1,30.01,SE,140,0.0,0.0,98,0.00,,OVC,0.02,WeatherDisplay:10.37,2013-02-21 11:32:00,
2013-02-21 03:42:00,35.7,35.2,30.00,SE,134,0.0,0.0,98,0.00,,OVC,0.02,WeatherDisplay:10.37,2013-02-21 11:42:00,
2013-02-21 03:47:00,35.7,35.2,30.00,SE,128,0.0,0.0,98,0.00,,OVC,0.02,WeatherDisplay:10.37,2013-02-21 11:47:00,
2013-02-21 03:52:00,35.7,35.2,30.00,SE,128,0.0,0.0,98,0.00,,OVC,0.02,WeatherDisplay:10.37,2013-02-21 11:52:00,
2013-02-21 03:57:00,35.7,35.2,30.01,SE,130,0.0,0.0,98,0.00,,OVC,0.02,WeatherDisplay:10.37,2013-02-21 11:57:00,
2013-02-21 04:02:00,35.7,35.2,30.01,SE,134,0.0,0.0,98,0.00,,OVC,0.02,WeatherDisplay:10.37,2013-02-21 12:02:00,
2013-02-21 04:07:00,35.7,35.2,30.01,SE,133,0.0,0.0,98,0.00,,OVC,0.02,WeatherDisplay:10.37,2013-02-21 12:07:00,
2013-02-21 04:12:00,35.7,35.2,30.01,SE,140,0.0,0.0,98,0.00,,OVC,0.02,WeatherDisplay:10.37,2013-02-21 12:12:00,
2013-02-21 04:17:00,35.7,35.2,30.01,SSE,151,0.0,0.0,98,0.00,,OVC,0.02,WeatherDisplay:10.37,2013-02-21 12:17:00,
2013-02-21 04:22:00,35.7,35.2,30.01,SE,146,0.0,0.0,98,0.01,RA,OVC,0.03,WeatherDisplay:10.37,2013-02-21 12:22:00,
2013-02-21 04:27:00,35.7,35.2,30.01,SE,143,0.0,0.0,98,0.01,RA,OVC,0.03,WeatherDisplay:10.37,2013-02-21 12:27:00,
2013-02-21 04:32:00,35.7,35.2,30.01,SSE,153,0.0,0.0,98,0.00,,OVC,0.03,WeatherDisplay:10.37,2013-02-21 12:32:00,
2013-02-21 04:37:00,35.7,35.2,30.00,SE,146,0.0,0.0,98,0.00,,OVC,0.03,WeatherDisplay:10.37,2013-02-21 12:37:00,
2013-02-21 04:42:00,35.7,35.2,30.00,SE,145,0.0,0.0,98,0.00,,OVC,0.03,WeatherDisplay:10.37,2013-02-21 12:42:00,
2013-02-21 04:47:00,35.8,35.3,30.01,SE,144,0.0,0.0,98,0.00,,OVC,0.03,WeatherDisplay:10.37,2013-02-21 12:47:00,
2013-02-21 04:52:00,35.8,35.3,30.01,SE,141,0.0,0.0,98,0.00,,OVC,0.03,WeatherDisplay:10.37,2013-02-21 12:52:00,
2013-02-21 04:57:00,35.8,35.3,30.01,SE,136,0.0,0.0,98,0.00,,OVC,0.03,WeatherDisplay:10.37,2013-02-21 12:57:00,
2013-02-21 05:02:00,35.9,35.4,30.01,SE,136,0.0,0.0,98,0.00,,OVC,0.03,WeatherDisplay:10.37,2013-02-21 13:02:00,
2013-02-21 05:07:00,35.9,35.6,30.00,SE,140,0.0,0.0,99,0.00,,OVC,0.03,WeatherDisplay:10.37,2013-02-21 13:07:00,
2013-02-21 05:12:00,35.9,35.6,30.01,SE,135,0.0,0.0,99,0.00,,OVC,0.03,WeatherDisplay:10.37,2013-02-21 13:12:00,
2013-02-21 05:17:00,35.9,35.6,30.01,SE,129,0.0,0.0,99,0.01,RA,OVC,0.04,WeatherDisplay:10.37,2013-02-21 13:17:00,
2013-02-21 05:22:00,35.9,35.6,30.01,SE,133,0.0,0.0,99,0.02,RA,OVC,0.05,WeatherDisplay:10.37,2013-02-21 13:22:00,
2013-02-21 05:27:00,35.9,35.6,30.01,SSE,151,0.0,0.0,99,0.01,RA,OVC,0.05,WeatherDisplay:10.37,2013-02-21 13:27:00,
2013-02-21 05:32:00,35.9,35.6,30.01,SSE,149,0.0,0.0,99,0.00,,OVC,0.05,WeatherDisplay:10.37,2013-02-21 13:32:00,
2013-02-21 05:37:00,35.9,35.7,30.01,SSE,149,1.0,0.0,99,0.00,,OVC,0.05,WeatherDisplay:10.37,2013-02-21 13:37:00,
2013-02-21 05:42:00,36.0,35.7,30.01,SSE,149,0.0,0.0,99,0.00,,OVC,0.05,WeatherDisplay:10.37,2013-02-21 13:42:00,
2013-02-21 05:47:00,36.0,35.5,30.01,SE,144,0.0,0.0,98,0.01,RA,OVC,0.06,WeatherDisplay:10.37,2013-02-21 13:47:00,
2013-02-21 05:52:00,36.0,35.5,30.01,SE,135,0.0,0.0,98,0.02,RA,OVC,0.07,WeatherDisplay:10.37,2013-02-21 13:52:00,
2013-02-21 05:57:00,36.0,35.5,30.01,SE,135,0.0,0.0,98,0.02,RA,OVC,0.08,WeatherDisplay:10.37,2013-02-21 13:57:00,
2013-02-21 06:02:00,36.0,35.5,30.01,SE,144,0.0,0.0,98,0.01,RA,OVC,0.08,WeatherDisplay:10.37,2013-02-21 14:02:00,
2013-02-21 06:07:00,36.0,35.5,30.01,SSE,157,0.0,0.0,98,0.00,,OVC,0.08,WeatherDisplay:10.37,2013-02-21 14:07:00,
2013-02-21 06:12:00,36.0,35.5,30.01,SSE,157,1.0,0.0,98,0.01,RA,OVC,0.09,WeatherDisplay:10.37,2013-02-21 14:12:00,
2013-02-21 06:17:00,36.0,35.7,30.01,SE,134,3.0,0.0,99,0.01,RA,OVC,0.09,WeatherDisplay:10.37,2013-02-21 14:17:00,
2013-02-21 06:22:00,36.1,35.6,30.02,SE,142,0.0,0.0,98,0.00,,OVC,0.09,WeatherDisplay:10.37,2013-02-21 14:22:00,
2013-02-21 06:27:00,36.2,35.9,30.01,SSE,163,2.0,0.0,99,0.01,RA,OVC,0.10,WeatherDisplay:10.37,2013-02-21 14:27:00,
2013-02-21 06:32:00,36.3,36.0,30.01,SSE,158,5.0,0.0,99,0.01,RA,OVC,0.10,WeatherDisplay:10.37,2013-02-21 14:32:00,
2013-02-21 06:37:00,36.4,36.1,30.01,SSE,160,2.0,0.0,99,0.00,,OVC,0.10,WeatherDisplay:10.37,2013-02-21 14:37:00,
2013-02-21 06:42:00,36.5,36.2,30.01,SE,142,2.0,0.0,99,0.00,,OVC,0.10,WeatherDisplay:10.37,2013-02-21 14:42:00,
2013-02-21 06:47:00,36.7,36.4,30.02,SE,144,2.0,0.0,99,0.01,RA,OVC,0.11,WeatherDisplay:10.37,2013-02-21 14:47:00,
2013-02-21 06:52:00,36.8,36.5,30.02,SSE,154,2.0,0.0,99,0.01,RA,OVC,0.11,WeatherDisplay:10.37,2013-02-21 14:52:00,
2013-02-21 06:57:00,36.8,36.5,30.02,SSE,153,3.0,0.0,99,0.00,,OVC,0.11,WeatherDisplay:10.37,2013-02-21 14:57:00,
2013-02-21 07:02:00,36.9,36.6,30.02,SSE,157,2.0,0.0,99,0.00,CLR,OVC,0.11,WeatherDisplay:10.37,2013-02-21 15:02:00,
2013-02-21 07:07:00,36.9,36.6,30.02,South,179,2.0,0.0,99,0.00,CLR,OVC,0.11,WeatherDisplay:10.37,2013-02-21 15:07:00,
2013-02-21 07:12:00,36.9,36.7,30.02,South,188,2.0,0.0,99,0.00,CLR,OVC,0.11,WeatherDisplay:10.37,2013-02-21 15:12:00,
2013-02-21 07:17:00,37.0,36.7,30.02,South,174,1.0,0.0,99,0.00,CLR,OVC,0.11,WeatherDisplay:10.37,2013-02-21 15:17:00,
2013-02-21 07:22:00,37.0,36.7,30.02,South,171,1.0,0.0,99,0.00,CLR,OVC,0.11,WeatherDisplay:10.37,2013-02-21 15:22:00,
2013-02-21 07:27:00,37.0,36.7,30.02,South,174,3.0,0.0,99,0.00,CLR,OVC,0.11,WeatherDisplay:10.37,2013-02-21 15:27:00,
2013-02-21 07:32:00,37.0,36.8,30.02,South,171,2.0,0.0,99,0.01,RA,OVC,0.12,WeatherDisplay:10.37,2013-02-21 15:32:00,
2013-02-21 07:37:00,37.1,36.8,30.02,SSE,159,0.0,0.0,99,0.01,RA,OVC,0.12,WeatherDisplay:10.37,2013-02-21 15:37:00,
2013-02-21 07:42:00,37.1,36.8,30.02,SSE,152,2.0,0.0,99,0.00,CLR,OVC,0.12,WeatherDisplay:10.37,2013-02-21 15:42:00,
2013-02-21 07:47:00,37.1,36.8,30.02,SSE,165,2.0,0.0,99,0.01,RA,OVC,0.13,WeatherDisplay:10.37,2013-02-21 15:47:00,
2013-02-21 07:52:00,37.1,36.8,30.02,SSE,166,2.0,0.0,99,0.01,RA,OVC,0.13,WeatherDisplay:10.37,2013-02-21 15:52:00,
2013-02-21 07:57:00,37.1,36.8,30.02,South,176,2.0,0.0,99,0.00,CLR,OVC,0.13,WeatherDisplay:10.37,2013-02-21 15:57:00,
2013-02-21 08:02:00,37.1,36.9,30.03,South,177,2.0,0.0,99,0.00,CLR,OVC,0.13,WeatherDisplay:10.37,2013-02-21 16:02:00,
2013-02-21 08:07:00,37.2,36.9,30.02,South,171,1.0,0.0,99,0.00,CLR,OVC,0.13,WeatherDisplay:10.37,2013-02-21 16:07:00,
2013-02-21 08:12:00,37.2,36.9,30.03,South,180,2.0,0.0,99,0.00,CLR,OVC,0.13,WeatherDisplay:10.37,2013-02-21 16:12:00,
2013-02-21 08:17:00,37.2,36.9,30.03,South,187,5.0,0.0,99,0.00,CLR,OVC,0.13,WeatherDisplay:10.37,2013-02-21 16:17:00,
2013-02-21 08:22:00,37.3,37.0,30.03,South,174,2.0,0.0,99,0.00,CLR,OVC,0.13,WeatherDisplay:10.37,2013-02-21 16:22:00,
2013-02-21 08:27:00,37.3,37.0,30.02,SSE,166,3.0,0.0,99,0.00,CLR,OVC,0.13,WeatherDisplay:10.37,2013-02-21 16:27:00,
2013-02-21 08:32:00,37.3,37.0,30.02,South,175,3.0,0.0,99,0.00,CLR,OVC,0.13,WeatherDisplay:10.37,2013-02-21 16:32:00,
2013-02-21 08:37:00,37.3,37.1,30.02,South,176,2.0,0.0,99,0.01,RA,OVC,0.14,WeatherDisplay:10.37,2013-02-21 16:37:00,
2013-02-21 08:42:00,37.3,37.1,30.03,South,177,2.0,0.0,99,0.01,RA,OVC,0.14,WeatherDisplay:10.37,2013-02-21 16:42:00,
2013-02-21 08:47:00,37.4,37.1,30.03,South,182,2.0,0.0,99,0.00,CLR,OVC,0.14,WeatherDisplay:10.37,2013-02-21 16:47:00,
2013-02-21 08:52:00,37.4,37.1,30.03,South,189,3.0,0.0,99,0.00,CLR,OVC,0.14,WeatherDisplay:10.37,2013-02-21 16:52:00,
2013-02-21 08:57:00,37.4,37.1,30.03,South,180,2.0,0.0,99,0.00,CLR,OVC,0.14,WeatherDisplay:10.37,2013-02-21 16:57:00,
2013-02-21 09:02:00,37.4,37.1,30.04,South,173,3.0,0.0,99,0.00,CLR,OVC,0.14,WeatherDisplay:10.37,2013-02-21 17:02:00,
2013-02-21 09:07:00,37.5,37.2,30.03,South,172,2.0,0.0,99,0.00,CLR,OVC,0.14,WeatherDisplay:10.37,2013-02-21 17:07:00,
2013-02-21 09:12:00,37.5,37.2,30.03,South,169,2.0,0.0,99,0.00,CLR,OVC,0.14,WeatherDisplay:10.37,2013-02-21 17:12:00,
2013-02-21 09:17:00,37.5,37.2,30.03,South,169,3.0,0.0,99,0.00,CLR,OVC,0.14,WeatherDisplay:10.37,2013-02-21 17:17:00,
2013-02-21 09:22:00,37.5,37.2,30.03,South,171,2.0,0.0,99,0.01,RA,OVC,0.15,WeatherDisplay:10.37,2013-02-21 17:22:00,
2013-02-21 09:27:00,37.6,37.3,30.03,South,176,2.0,0.0,99,0.01,RA,OVC,0.15,WeatherDisplay:10.37,2013-02-21 17:27:00,
2013-02-21 09:32:00,37.6,37.3,30.03,SSE,166,3.0,0.0,99,0.00,CLR,OVC,0.15,WeatherDisplay:10.37,2013-02-21 17:32:00,
2013-02-21 09:37:00,37.7,37.4,30.03,SSE,150,3.0,0.0,99,0.00,CLR,OVC,0.15,WeatherDisplay:10.37,2013-02-21 17:37:00,
2013-02-21 09:42:00,37.8,37.5,30.03,SSE,155,6.0,0.0,99,0.00,CLR,OVC,0.15,WeatherDisplay:10.37,2013-02-21 17:42:00,
2013-02-21 09:47:00,37.9,37.6,30.03,SSE,166,6.0,0.0,99,0.00,CLR,OVC,0.15,WeatherDisplay:10.37,2013-02-21 17:47:00,
2013-02-21 09:52:00,38.0,37.7,30.03,South,177,7.0,0.0,99,0.00,CLR,OVC,0.15,WeatherDisplay:10.37,2013-02-21 17:52:00,
2013-02-21 09:57:00,38.0,37.7,30.03,SSE,164,3.0,0.0,99,0.00,CLR,OVC,0.15,WeatherDisplay:10.37,2013-02-21 17:57:00,
2013-02-21 10:02:00,37.9,37.7,30.03,SSE,158,6.0,0.0,99,0.00,CLR,OVC,0.15,WeatherDisplay:10.37,2013-02-21 18:02:00,
2013-02-21 10:07:00,37.9,37.6,30.04,SSE,153,1.0,0.0,99,0.00,CLR,OVC,0.15,WeatherDisplay:10.37,2013-02-21 18:07:00,
2013-02-21 10:12:00,37.9,37.6,30.04,SSE,157,1.0,0.0,99,0.00,CLR,OVC,0.15,WeatherDisplay:10.37,2013-02-21 18:12:00,
2013-02-21 10:17:00,37.9,37.6,30.04,SSE,157,6.0,0.0,99,0.00,CLR,OVC,0.15,WeatherDisplay:10.37,2013-02-21 18:17:00,
2013-02-21 10:22:00,37.8,37.6,30.04,SSE,165,5.0,0.0,99,0.00,CLR,OVC,0.15,WeatherDisplay:10.37,2013-02-21 18:22:00,
2013-02-21 10:27:00,37.8,37.6,30.04,SSE,153,2.0,0.0,99,0.00,CLR,OVC,0.15,WeatherDisplay:10.37,2013-02-21 18:27:00,
2013-02-21 10:32:00,37.9,37.6,30.04,SSE,149,3.0,0.0,99,0.00,CLR,OVC,0.15,WeatherDisplay:10.37,2013-02-21 18:32:00,
2013-02-21 10:37:00,37.8,37.5,30.04,SSE,157,6.0,0.0,99,0.00,CLR,OVC,0.15,WeatherDisplay:10.37,2013-02-21 18:37:00,
2013-02-21 10:42:00,37.8,37.5,30.04,SSE,154,3.0,0.0,99,0.00,CLR,OVC,0.15,WeatherDisplay:10.37,2013-02-21 18:42:00,
2013-02-21 10:47:00,37.7,37.5,30.04,SSE,152,2.0,0.0,99,0.00,CLR,OVC,0.15,WeatherDisplay:10.37,2013-02-21 18:47:00,
2013-02-21 10:52:00,37.7,37.5,30.04,South,169,1.0,0.0,99,0.00,CLR,OVC,0.15,WeatherDisplay:10.37,2013-02-21 18:52:00,
2013-02-21 10:57:00,37.7,37.4,30.04,SSE,166,3.0,0.0,99,0.00,CLR,OVC,0.15,WeatherDisplay:10.37,2013-02-21 18:57:00,
2013-02-21 11:02:00,37.7,37.4,30.04,SSE,161,2.0,0.0,99,0.00,CLR,OVC,0.15,WeatherDisplay:10.37,2013-02-21 19:02:00,
2013-02-21 11:07:00,37.7,37.4,30.04,SSE,165,2.0,0.0,99,0.00,CLR,OVC,0.15,WeatherDisplay:10.37,2013-02-21 19:07:00,
2013-02-21 11:12:00,37.7,37.4,30.04,SSE,167,5.0,0.0,99,0.00,CLR,OVC,0.15,WeatherDisplay:10.37,2013-02-21 19:12:00,
2013-02-21 11:17:00,37.7,37.4,30.04,South,169,2.0,0.0,99,0.00,CLR,OVC,0.15,WeatherDisplay:10.37,2013-02-21 19:17:00,
2013-02-21 11:22:00,37.7,37.4,30.04,SSE,160,3.0,0.0,99,0.00,CLR,OVC,0.15,WeatherDisplay:10.37,2013-02-21 19:22:00,
2013-02-21 11:27:00,37.7,37.4,30.04,SSE,161,1.0,0.0,99,0.00,CLR,OVC,0.15,WeatherDisplay:10.37,2013-02-21 19:27:00,
2013-02-21 11:32:00,37.7,37.4,30.04,SSE,164,3.0,0.0,99,0.01,RA,OVC,0.16,WeatherDisplay:10.37,2013-02-21 19:32:00,
2013-02-21 11:37:00,37.8,37.5,30.04,SSE,161,2.0,0.0,99,0.01,RA,OVC,0.16,WeatherDisplay:10.37,2013-02-21 19:37:00,
2013-02-21 11:42:00,37.8,37.5,30.04,SSE,160,2.0,0.0,99,0.00,CLR,OVC,0.16,WeatherDisplay:10.37,2013-02-21 19:42:00,
2013-02-21 11:47:00,37.8,37.5,30.04,SSE,149,2.0,0.0,99,0.00,CLR,OVC,0.16,WeatherDisplay:10.37,2013-02-21 19:47:00,
2013-02-21 11:52:00,37.9,37.6,30.03,SSE,153,2.0,0.0,99,0.01,RA,OVC,0.17,WeatherDisplay:10.37,2013-02-21 19:52:00,
2013-02-21 11:57:00,37.9,37.6,30.04,SSE,149,1.0,0.0,99,0.01,RA,OVC,0.17,WeatherDisplay:10.37,2013-02-21 19:57:00,
2013-02-21 12:02:00,38.0,37.7,30.03,SE,146,2.0,0.0,99,0.00,CLR,OVC,0.17,WeatherDisplay:10.37,2013-02-21 20:02:00,
2013-02-21 12:07:00,38.0,37.7,30.03,SSE,153,1.0,0.0,99,0.00,CLR,OVC,0.17,WeatherDisplay:10.37,2013-02-21 20:07:00,
2013-02-21 12:12:00,38.1,37.8,30.03,SSE,156,5.0,0.0,99,0.01,RA,OVC,0.18,WeatherDisplay:10.37,2013-02-21 20:12:00,
2013-02-21 12:17:00,38.0,37.7,30.03,SSE,150,1.0,0.0,99,0.01,RA,OVC,0.18,WeatherDisplay:10.37,2013-02-21 20:17:00,
2013-02-21 12:22:00,38.1,37.8,30.03,SE,144,5.0,0.0,99,0.00,CLR,OVC,0.18,WeatherDisplay:10.37,2013-02-21 20:22:00,
2013-02-21 12:27:00,38.1,37.8,30.03,SE,131,1.0,0.0,99,0.00,CLR,OVC,0.18,WeatherDisplay:10.37,2013-02-21 20:27:00,
2013-02-21 12:32:00,38.1,37.8,30.03,SSE,157,3.0,0.0,99,0.00,CLR,OVC,0.18,WeatherDisplay:10.37,2013-02-21 20:32:00,
2013-02-21 12:37:00,38.1,37.8,30.03,SSE,165,5.0,0.0,99,0.00,CLR,OVC,0.18,WeatherDisplay:10.37,2013-02-21 20:37:00,
2013-02-21 12:42:00,38.0,37.7,30.03,SSE,149,3.0,0.0,99,0.00,CLR,OVC,0.18,WeatherDisplay:10.37,2013-02-21 20:42:00,
2013-02-21 12:47:00,38.0,37.7,30.03,SE,141,5.0,0.0,99,0.00,CLR,OVC,0.18,WeatherDisplay:10.37,2013-02-21 20:47:00,
2013-02-21 12:52:00,38.0,37.7,30.02,SSE,157,3.0,0.0,99,0.00,CLR,OVC,0.18,WeatherDisplay:10.37,2013-02-21 20:52:00,
2013-02-21 12:57:00,38.1,37.8,30.02,SSE,159,5.0,0.0,99,0.00,CLR,OVC,0.18,WeatherDisplay:10.37,2013-02-21 20:57:00,
2013-02-21 13:02:00,38.1,37.8,30.02,SSE,159,5.0,0.0,99,0.00,CLR,OVC,0.18,WeatherDisplay:10.37,2013-02-21 21:02:00,
2013-02-21 13:07:00,38.2,37.9,30.02,SSE,157,3.0,0.0,99,0.00,CLR,OVC,0.18,WeatherDisplay:10.37,2013-02-21 21:07:00,
2013-02-21 13:17:00,38.5,38.2,30.02,SE,143,3.0,0.0,99,0.00,CLR,OVC,0.18,WeatherDisplay:10.37,2013-02-21 21:17:00,
2013-02-21 13:27:00,38.5,38.2,30.01,SSE,155,3.0,0.0,99,0.00,CLR,OVC,0.18,WeatherDisplay:10.37,2013-02-21 21:27:00,
2013-02-21 13:32:00,38.4,38.1,30.02,SSE,153,2.0,0.0,99,0.00,CLR,OVC,0.18,WeatherDisplay:10.37,2013-02-21 21:32:00,
2013-02-21 13:37:00,38.4,38.1,30.02,SSE,157,2.0,0.0,99,0.00,CLR,OVC,0.18,WeatherDisplay:10.37,2013-02-21 21:37:00,
2013-02-21 13:42:00,38.3,38.0,30.01,SSE,159,5.0,0.0,99,0.00,CLR,OVC,0.18,WeatherDisplay:10.37,2013-02-21 21:42:00,
2013-02-21 13:47:00,38.3,38.0,30.01,South,171,1.0,0.0,99,0.00,CLR,OVC,0.18,WeatherDisplay:10.37,2013-02-21 21:47:00,
2013-02-21 13:52:00,38.3,38.0,30.01,South,172,3.0,0.0,99,0.00,CLR,OVC,0.18,WeatherDisplay:10.37,2013-02-21 21:52:00,
2013-02-21 13:57:00,38.3,38.0,30.01,SSE,151,0.0,0.0,99,0.00,CLR,OVC,0.18,WeatherDisplay:10.37,2013-02-21 21:57:00,
2013-02-21 14:02:00,38.3,38.1,30.01,SSE,147,2.0,0.0,99,0.00,CLR,OVC,0.18,WeatherDisplay:10.37,2013-02-21 22:02:00,
2013-02-21 14:07:00,38.3,37.8,30.01,SSE,154,3.0,0.0,98,0.00,CLR,OVC,0.18,WeatherDisplay:10.37,2013-02-21 22:07:00,
2013-02-21 14:12:00,38.3,37.8,30.01,SSE,156,1.0,0.0,98,0.00,CLR,OVC,0.18,WeatherDisplay:10.37,2013-02-21 22:12:00,
2013-02-21 14:17:00,38.3,37.8,30.01,SSE,155,1.0,0.0,98,0.00,CLR,OVC,0.18,WeatherDisplay:10.37,2013-02-21 22:17:00,
2013-02-21 14:27:00,38.2,37.9,30.01,SSE,151,1.0,0.0,99,0.01,RA,OVC,0.19,WeatherDisplay:10.37,2013-02-21 22:27:00,
2013-02-21 14:32:00,38.2,37.9,30.01,SSE,149,1.0,0.0,99,0.00,CLR,OVC,0.19,WeatherDisplay:10.37,2013-02-21 22:32:00,
2013-02-21 14:37:00,38.3,37.8,30.01,SSE,164,1.0,0.0,98,0.00,CLR,OVC,0.19,WeatherDisplay:10.37,2013-02-21 22:37:00,
2013-02-21 14:42:00,38.3,37.8,30.01,South,174,0.0,0.0,98,0.00,CLR,OVC,0.19,WeatherDisplay:10.37,2013-02-21 22:42:00,
2013-02-21 14:47:00,38.3,37.8,30.01,South,169,0.0,0.0,98,0.00,CLR,OVC,0.19,WeatherDisplay:10.37,2013-02-21 22:47:00,
2013-02-21 14:52:00,38.4,37.9,30.02,SSE,153,2.0,0.0,98,0.00,CLR,OVC,0.19,WeatherDisplay:10.37,2013-02-21 22:52:00,
2013-02-21 14:57:00,38.3,37.8,30.02,SSE,161,0.0,0.0,98,0.00,CLR,OVC,0.19,WeatherDisplay:10.37,2013-02-21 22:57:00,
2013-02-21 15:02:00,38.3,37.8,30.02,SSE,167,0.0,0.0,98,0.00,CLR,OVC,0.19,WeatherDisplay:10.37,2013-02-21 23:02:00,
2013-02-21 15:07:00,38.3,37.8,30.02,SE,124,1.0,0.0,98,0.00,CLR,OVC,0.19,WeatherDisplay:10.37,2013-02-21 23:07:00,
2013-02-21 15:12:00,38.3,37.8,30.02,East,89,0.0,0.0,98,0.00,CLR,OVC,0.19,WeatherDisplay:10.37,2013-02-21 23:12:00,
2013-02-21 15:17:00,38.2,37.9,30.02,East,88,1.0,0.0,99,0.00,CLR,OVC,0.19,WeatherDisplay:10.37,2013-02-21 23:17:00,
2013-02-21 15:22:00,38.2,37.9,30.02,East,86,1.0,0.0,99,0.00,CLR,OVC,0.19,WeatherDisplay:10.37,2013-02-21 23:22:00,
2013-02-21 15:27:00,38.1,37.9,30.02,East,84,0.0,0.0,99,0.00,CLR,OVC,0.19,WeatherDisplay:10.37,2013-02-21 23:27:00,
2013-02-21 15:32:00,38.1,37.8,30.02,East,87,0.0,0.0,99,0.00,CLR,OVC,0.19,WeatherDisplay:10.37,2013-02-21 23:32:00,
2013-02-21 15:37:00,38.1,37.8,30.02,East,93,1.0,0.0,99,0.00,CLR,OVC,0.19,WeatherDisplay:10.37,2013-02-21 23:37:00,
2013-02-21 15:42:00,38.1,37.8,30.02,East,88,0.0,0.0,99,0.00,CLR,OVC,0.19,WeatherDisplay:10.37,2013-02-21 23:42:00,
2013-02-21 15:47:00,38.0,37.7,30.02,East,89,0.0,0.0,99,0.00,CLR,OVC,0.19,WeatherDisplay:10.37,2013-02-21 23:47:00,
2013-02-21 15:52:00,38.0,37.7,30.02,East,98,0.0,0.0,99,0.00,CLR,OVC,0.19,WeatherDisplay:10.37,2013-02-21 23:52:00,
2013-02-21 15:57:00,38.0,37.7,30.02,East,101,1.0,0.0,99,0.00,CLR,OVC,0.19,WeatherDisplay:10.37,2013-02-21 23:57:00,
2013-02-21 16:02:00,38.0,37.7,30.02,ESE,102,0.0,0.0,99,0.00,CLR,OVC,0.19,WeatherDisplay:10.37,2013-02-22 00:02:00,
2013-02-21 16:12:00,38.0,37.7,30.02,ESE,118,0.0,0.0,99,0.00,CLR,OVC,0.19,WeatherDisplay:10.37,2013-02-22 00:12:00,
2013-02-21 16:17:00,38.0,37.7,30.02,ESE,118,0.0,0.0,99,0.00,CLR,OVC,0.19,WeatherDisplay:10.37,2013-02-22 00:17:00,
2013-02-21 16:22:00,38.0,37.7,30.02,ESE,107,1.0,0.0,99,0.00,CLR,OVC,0.19,WeatherDisplay:10.37,2013-02-22 00:22:00,
2013-02-21 16:27:00,38.0,37.5,30.02,ESE,109,0.0,0.0,98,0.00,CLR,OVC,0.19,WeatherDisplay:10.37,2013-02-22 00:27:00,
2013-02-21 16:32:00,37.9,37.4,30.02,ESE,113,0.0,0.0,98,0.00,CLR,OVC,0.19,WeatherDisplay:10.37,2013-02-22 00:32:00,
2013-02-21 16:37:00,38.0,37.7,30.02,ESE,116,0.0,0.0,99,0.00,CLR,OVC,0.19,WeatherDisplay:10.37,2013-02-22 00:37:00,
2013-02-21 16:42:00,38.0,37.7,30.02,SE,146,2.0,0.0,99,0.00,CLR,OVC,0.19,WeatherDisplay:10.37,2013-02-22 00:42:00,
2013-02-21 16:47:00,37.9,37.4,30.02,SSE,151,1.0,0.0,98,0.00,CLR,OVC,0.19,WeatherDisplay:10.37,2013-02-22 00:47:00,
2013-02-21 16:52:00,37.9,37.4,30.02,SE,145,1.0,0.0,98,0.00,CLR,OVC,0.19,WeatherDisplay:10.37,2013-02-22 00:52:00,
2013-02-21 16:57:00,37.9,37.4,30.02,SE,140,0.0,0.0,98,0.00,CLR,OVC,0.19,WeatherDisplay:10.37,2013-02-22 00:57:00,
2013-02-21 17:02:00,37.9,37.4,30.02,SE,145,1.0,0.0,98,0.00,CLR,OVC,0.19,WeatherDisplay:10.37,2013-02-22 01:02:00,
2013-02-21 17:07:00,37.9,37.4,30.02,SSE,150,0.0,0.0,98,0.00,CLR,OVC,0.19,WeatherDisplay:10.37,2013-02-22 01:07:00,
2013-02-21 17:12:00,38.0,37.7,30.02,SE,144,0.0,0.0,99,0.00,CLR,OVC,0.19,WeatherDisplay:10.37,2013-02-22 01:12:00,
2013-02-21 17:17:00,37.9,37.7,30.02,SSE,160,0.0,0.0,99,0.00,CLR,OVC,0.19,WeatherDisplay:10.37,2013-02-22 01:17:00,
2013-02-21 17:22:00,37.9,37.6,30.03,South,181,0.0,0.0,99,0.01,RA,OVC,0.20,WeatherDisplay:10.37,2013-02-22 01:22:00,
2013-02-21 17:27:00,37.9,37.6,30.03,SSE,163,0.0,0.0,99,0.01,RA,OVC,0.20,WeatherDisplay:10.37,2013-02-22 01:27:00,
2013-02-21 17:32:00,37.9,37.6,30.03,SSE,153,0.0,0.0,99,0.00,CLR,OVC,0.20,WeatherDisplay:10.37,2013-02-22 01:32:00,
2013-02-21 17:37:00,37.9,37.6,30.03,SE,142,0.0,0.0,99,0.00,CLR,OVC,0.20,WeatherDisplay:10.37,2013-02-22 01:37:00,
2013-02-21 17:42:00,37.9,37.6,30.04,SE,142,0.0,0.0,99,0.00,CLR,OVC,0.20,WeatherDisplay:10.37,2013-02-22 01:42:00,
2013-02-21 17:47:00,37.9,37.6,30.04,SE,142,0.0,0.0,99,0.00,CLR,OVC,0.20,WeatherDisplay:10.37,2013-02-22 01:47:00,
2013-02-21 17:52:00,37.9,37.6,30.04,SE,142,0.0,0.0,99,0.00,CLR,OVC,0.20,WeatherDisplay:10.37,2013-02-22 01:52:00,
2013-02-21 17:57:00,37.9,37.6,30.04,SE,142,0.0,0.0,99,0.00,CLR,OVC,0.20,WeatherDisplay:10.37,2013-02-22 01:57:00,
2013-02-21 18:02:00,37.9,37.6,30.04,SE,137,0.0,0.0,99,0.00,,OVC,0.20,WeatherDisplay:10.37,2013-02-22 02:02:00,
2013-02-21 18:07:00,37.9,37.6,30.04,ESE,120,0.0,0.0,99,0.00,,OVC,0.20,WeatherDisplay:10.37,2013-02-22 02:07:00,
2013-02-21 18:12:00,37.8,37.6,30.04,SE,134,0.0,0.0,99,0.00,,OVC,0.20,WeatherDisplay:10.37,2013-02-22 02:12:00,
2013-02-21 18:17:00,37.8,37.6,30.04,SSE,148,0.0,0.0,99,0.00,,OVC,0.20,WeatherDisplay:10.37,2013-02-22 02:17:00,
2013-02-21 18:22:00,37.8,37.5,30.04,SSE,151,0.0,0.0,99,0.00,,OVC,0.20,WeatherDisplay:10.37,2013-02-22 02:22:00,
2013-02-21 18:27:00,37.8,37.5,30.03,SSE,162,0.0,0.0,99,0.00,,OVC,0.20,WeatherDisplay:10.37,2013-02-22 02:27:00,
2013-02-21 18:32:00,37.8,37.5,30.03,SSE,162,0.0,0.0,99,0.00,,OVC,0.20,WeatherDisplay:10.37,2013-02-22 02:32:00,
2013-02-21 18:37:00,37.8,37.5,30.03,SE,132,0.0,0.0,99,0.00,,OVC,0.20,WeatherDisplay:10.37,2013-02-22 02:37:00,
2013-02-21 18:42:00,37.8,37.5,30.03,SE,131,0.0,0.0,99,0.00,,OVC,0.20,WeatherDisplay:10.37,2013-02-22 02:42:00,
2013-02-21 18:47:00,37.8,37.5,30.03,SE,139,0.0,0.0,99,0.00,,OVC,0.20,WeatherDisplay:10.37,2013-02-22 02:47:00,
2013-02-21 18:52:00,37.8,37.5,30.03,SSE,147,0.0,0.0,99,0.00,,OVC,0.20,WeatherDisplay:10.37,2013-02-22 02:52:00,
2013-02-21 18:57:00,37.8,37.5,30.03,SE,145,0.0,0.0,99,0.00,,OVC,0.20,WeatherDisplay:10.37,2013-02-22 02:57:00,
2013-02-21 19:02:00,37.8,37.5,30.03,SSE,149,0.0,0.0,99,0.00,,OVC,0.20,WeatherDisplay:10.37,2013-02-22 03:02:00,
2013-02-21 19:07:00,37.8,37.5,30.03,SSE,156,0.0,0.0,99,0.00,,OVC,0.20,WeatherDisplay:10.37,2013-02-22 03:07:00,
2013-02-21 19:12:00,37.8,37.5,30.03,SSE,154,0.0,0.0,99,0.00,,OVC,0.20,WeatherDisplay:10.37,2013-02-22 03:12:00,
2013-02-21 19:17:00,37.8,37.6,30.03,SSE,147,1.0,0.0,99,0.00,,OVC,0.20,WeatherDisplay:10.37,2013-02-22 03:17:00,
2013-02-21 19:22:00,37.9,37.6,30.03,SE,132,0.0,0.0,99,0.00,,OVC,0.20,WeatherDisplay:10.37,2013-02-22 03:22:00,
2013-02-21 19:27:00,37.9,37.6,30.03,SE,130,0.0,0.0,99,0.00,,OVC,0.20,WeatherDisplay:10.37,2013-02-22 03:27:00,
2013-02-21 19:32:00,37.9,37.6,30.03,ESE,119,0.0,0.0,99,0.00,,OVC,0.20,WeatherDisplay:10.37,2013-02-22 03:32:00,
2013-02-21 19:37:00,37.9,37.6,30.03,SE,136,0.0,0.0,99,0.00,,OVC,0.20,WeatherDisplay:10.37,2013-02-22 03:37:00,
2013-02-21 19:42:00,37.9,37.6,30.03,SSE,147,0.0,0.0,99,0.00,,OVC,0.20,WeatherDisplay:10.37,2013-02-22 03:42:00,
2013-02-21 19:47:00,37.9,37.6,30.03,SSE,148,0.0,0.0,99,0.00,,OVC,0.20,WeatherDisplay:10.37,2013-02-22 03:47:00,
2013-02-21 19:52:00,37.9,37.6,30.03,SSE,152,0.0,0.0,99,0.00,,OVC,0.20,WeatherDisplay:10.37,2013-02-22 03:52:00,
2013-02-21 19:57:00,37.9,37.6,30.03,SE,144,0.0,0.0,99,0.00,,OVC,0.20,WeatherDisplay:10.37,2013-02-22 03:57:00,
2013-02-21 20:02:00,37.9,37.6,30.03,SE,144,0.0,0.0,99,0.00,,OVC,0.20,WeatherDisplay:10.37,2013-02-22 04:02:00,
2013-02-21 20:07:00,37.9,37.6,30.03,SE,144,0.0,0.0,99,0.00,,OVC,0.20,WeatherDisplay:10.37,2013-02-22 04:07:00,
2013-02-21 20:17:00,37.9,37.6,30.03,SE,130,1.0,0.0,99,0.00,,OVC,0.20,WeatherDisplay:10.37,2013-02-22 04:17:00,
2013-02-21 20:22:00,37.9,37.6,30.03,ESE,116,0.0,0.0,99,0.00,,OVC,0.20,WeatherDisplay:10.37,2013-02-22 04:22:00,
2013-02-21 20:27:00,37.9,37.6,30.03,ESE,105,0.0,0.0,99,0.01,RA,OVC,0.21,WeatherDisplay:10.37,2013-02-22 04:27:00,
2013-02-21 20:32:00,37.9,37.6,30.04,ESE,105,0.0,0.0,99,0.01,RA,OVC,0.21,WeatherDisplay:10.37,2013-02-22 04:32:00,
2013-02-21 20:37:00,37.8,37.6,30.04,ESE,105,0.0,0.0,99,0.00,,OVC,0.21,WeatherDisplay:10.37,2013-02-22 04:37:00,
2013-02-21 20:42:00,37.8,37.6,30.04,ESE,105,0.0,0.0,99,0.00,,OVC,0.21,WeatherDisplay:10.37,2013-02-22 04:42:00,
2013-02-21 20:47:00,37.8,37.6,30.04,ESE,105,0.0,0.0,99,0.00,,OVC,0.21,WeatherDisplay:10.37,2013-02-22 04:47:00,
2013-02-21 20:52:00,37.8,37.6,30.04,ESE,105,0.0,0.0,99,0.00,,OVC,0.21,WeatherDisplay:10.37,2013-02-22 04:52:00,
2013-02-21 20:57:00,37.8,37.6,30.04,ESE,105,0.0,0.0,99,0.00,,OVC,0.21,WeatherDisplay:10.37,2013-02-22 04:57:00,
2013-02-21 21:02:00,37.8,37.5,30.04,ESE,105,0.0,0.0,99,0.00,,OVC,0.21,WeatherDisplay:10.37,2013-02-22 05:02:00,
2013-02-21 21:12:00,37.8,37.6,30.05,ESE,105,0.0,0.0,99,0.00,,OVC,0.21,WeatherDisplay:10.37,2013-02-22 05:12:00,
2013-02-21 21:17:00,37.9,37.6,30.05,ESE,105,0.0,0.0,99,0.00,,OVC,0.21,WeatherDisplay:10.37,2013-02-22 05:17:00,
2013-02-21 21:22:00,37.9,37.6,30.05,ESE,105,0.0,0.0,99,0.00,,OVC,0.21,WeatherDisplay:10.37,2013-02-22 05:22:00,
2013-02-21 21:27:00,37.9,37.6,30.05,ESE,105,0.0,0.0,99,0.00,,OVC,0.21,WeatherDisplay:10.37,2013-02-22 05:27:00,
2013-02-21 21:32:00,37.9,37.6,30.05,ESE,105,0.0,0.0,99,0.00,,OVC,0.21,WeatherDisplay:10.37,2013-02-22 05:32:00,
2013-02-21 21:37:00,37.9,37.6,30.05,ESE,105,0.0,0.0,99,0.00,,OVC,0.21,WeatherDisplay:10.37,2013-02-22 05:37:00,
2013-02-21 21:42:00,37.9,37.6,30.06,ESE,105,0.0,0.0,99,0.00,,OVC,0.21,WeatherDisplay:10.37,2013-02-22 05:42:00,
2013-02-21 21:47:00,37.9,37.6,30.05,ESE,105,0.0,0.0,99,0.00,,OVC,0.21,WeatherDisplay:10.37,2013-02-22 05:47:00,
2013-02-21 21:52:00,37.9,37.6,30.05,ESE,105,0.0,0.0,99,0.00,,OVC,0.21,WeatherDisplay:10.37,2013-02-22 05:52:00,
2013-02-21 21:57:00,37.9,37.6,30.05,ESE,105,0.0,0.0,99,0.00,,OVC,0.21,WeatherDisplay:10.37,2013-02-22 05:57:00,
2013-02-21 22:02:00,37.9,37.6,30.05,ESE,105,0.0,0.0,99,0.00,,OVC,0.21,WeatherDisplay:10.37,2013-02-22 06:02:00,
2013-02-21 22:07:00,38.0,37.7,30.05,ESE,105,0.0,0.0,99,0.00,,OVC,0.21,WeatherDisplay:10.37,2013-02-22 06:07:00,
2013-02-21 22:12:00,38.0,37.7,30.05,SE,124,0.0,0.0,99,0.00,,OVC,0.21,WeatherDisplay:10.37,2013-02-22 06:12:00,
2013-02-21 22:17:00,38.0,37.7,30.05,SSE,168,0.0,0.0,99,0.00,,OVC,0.21,WeatherDisplay:10.37,2013-02-22 06:17:00,
2013-02-21 22:22:00,38.0,37.7,30.05,South,184,0.0,0.0,99,0.00,,OVC,0.21,WeatherDisplay:10.37,2013-02-22 06:22:00,
2013-02-21 22:27:00,38.0,37.7,30.04,South,173,0.0,0.0,99,0.00,,OVC,0.21,WeatherDisplay:10.37,2013-02-22 06:27:00,
2013-02-21 22:32:00,38.0,37.7,30.04,SSE,167,0.0,0.0,99,0.00,,OVC,0.21,WeatherDisplay:10.37,2013-02-22 06:32:00,
2013-02-21 22:37:00,38.0,37.7,30.04,SSE,156,0.0,0.0,99,0.00,,OVC,0.21,WeatherDisplay:10.37,2013-02-22 06:37:00,
2013-02-21 22:42:00,38.0,37.7,30.03,ESE,106,0.0,0.0,99,0.00,,OVC,0.21,WeatherDisplay:10.37,2013-02-22 06:42:00,
2013-02-21 22:47:00,38.0,37.8,30.03,ESE,116,0.0,0.0,99,0.00,,OVC,0.21,WeatherDisplay:10.37,2013-02-22 06:47:00,
2013-02-21 22:52:00,38.1,37.8,30.03,SSE,154,1.0,0.0,99,0.00,,OVC,0.21,WeatherDisplay:10.37,2013-02-22 06:52:00,
2013-02-21 22:57:00,38.1,37.8,30.03,SSE,151,0.0,0.0,99,0.00,,OVC,0.21,WeatherDisplay:10.37,2013-02-22 06:57:00,
2013-02-21 23:02:00,38.1,37.8,30.03,SSE,159,1.0,0.0,99,0.00,,OVC,0.21,WeatherDisplay:10.37,2013-02-22 07:02:00,
2013-02-21 23:07:00,38.2,37.9,30.03,SSE,154,3.0,0.0,99,0.00,,OVC,0.21,WeatherDisplay:10.37,2013-02-22 07:07:00,
2013-02-21 23:12:00,38.3,38.0,30.03,SSE,156,2.0,0.0,99,0.00,,OVC,0.21,WeatherDisplay:10.37,2013-02-22 07:12:00,
2013-02-21 23:22:00,38.4,38.1,30.03,SSE,152,3.0,0.0,99,0.00,,OVC,0.21,WeatherDisplay:10.37,2013-02-22 07:22:00,
2013-02-21 23:27:00,38.4,38.2,30.03,SSE,156,5.0,0.0,99,0.00,,OVC,0.21,WeatherDisplay:10.37,2013-02-22 07:27:00,
2013-02-21 23:32:00,38.5,38.2,30.03,SSE,165,2.0,0.0,99,0.00,,OVC,0.21,WeatherDisplay:10.37,2013-02-22 07:32:00,
2013-02-21 23:37:00,38.5,38.2,30.03,SSE,167,3.0,0.0,99,0.00,,OVC,0.21,WeatherDisplay:10.37,2013-02-22 07:37:00,
2013-02-21 23:42:00,38.6,38.3,30.03,South,174,2.0,0.0,99,0.00,,OVC,0.21,WeatherDisplay:10.37,2013-02-22 07:42:00,
2013-02-21 23:47:00,38.6,38.3,30.04,SSE,166,2.0,0.0,99,0.00,,OVC,0.21,WeatherDisplay:10.37,2013-02-22 07:47:00,
2013-02-21 23:52:00,38.6,38.3,30.04,SSE,149,1.0,0.0,99,0.00,,OVC,0.21,WeatherDisplay:10.37,2013-02-22 07:52:00,
2013-02-21 23:57:00,38.7,38.4,30.03,SSE,160,3.0,0.0,99,0.00,,OVC,0.21,WeatherDisplay:10.37,2013-02-22 07:57:00,